Location: Brabourne
(51.1333°N, 1.0000°E)
Time: 07:49:23
(UTC+00:00)

Cosmos 1953 Rocket - Pass Details

Date: 20 June 2021
Orbit: 604 x 634 km, 82.5° (Epoch: 02 August)

Event Time Altitude Azimuth Distance (km) Brightness Sun altitude
Exits shadow 01:10:29 21° 211° (SSW) 1,378 4.7 -13.7°
Maximum altitude 01:13:14 57° 284° (WNW) 732 3.9 -13.6°
Drops below altitude 10° 01:17:37 10° 3° (N) 2,005 7.5 -13.4°
Sets 01:19:54 0° 8° (N) 2,922 8.8 -13.3°
